Lake Sonoma Weather Center

Moon Phase Calendar



Lake Sonoma Water Level
Online Cameras

 


      

Current Conditions in Cloverdale
7/1/2022 12:55:43 PM

79°F
Feels Like 79
Clear
Humidity
21%
Pressure
29.94"
Wind
5.3 mph (SSW)
Dew Point
36°F
UV Index
10/10 (Very High)
Visibility
6 mi

Hourly Forecast

Date & Time Fri, Jul 1
12:00 PM
Fri, Jul 1
1:00 PM
Fri, Jul 1
2:00 PM
Fri, Jul 1
3:00 PM
Fri, Jul 1
4:00 PM
Fri, Jul 1
5:00 PM
Fri, Jul 1
6:00 PM
Fri, Jul 1
7:00 PM
Fri, Jul 1
8:00 PM
Fri, Jul 1
9:00 PM
Fri, Jul 1
10:00 PM
Fri, Jul 1
11:00 PM
Sat, Jul 2
12:00 AM
Sat, Jul 2
1:00 AM
Sat, Jul 2
2:00 AM
Sat, Jul 2
3:00 AM
Sat, Jul 2
4:00 AM
Sat, Jul 2
5:00 AM
Sat, Jul 2
6:00 AM
Sat, Jul 2
7:00 AM
Sat, Jul 2
8:00 AM
Sat, Jul 2
9:00 AM
Sat, Jul 2
10:00 AM
Sat, Jul 2
11:00 AM
Sat, Jul 2
12:00 PM
Sat, Jul 2
1:00 PM
Sat, Jul 2
2:00 PM
Sat, Jul 2
3:00 PM
Sat, Jul 2
4:00 PM
Sat, Jul 2
5:00 PM
Sat, Jul 2
6:00 PM
Sat, Jul 2
7:00 PM
Sat, Jul 2
8:00 PM
Sat, Jul 2
9:00 PM
Sat, Jul 2
10:00 PM
Sat, Jul 2
11:00 PM
Sun, Jul 3
12:00 AM
Sun, Jul 3
1:00 AM
Sun, Jul 3
2:00 AM
Sun, Jul 3
3:00 AM
Sun, Jul 3
4:00 AM
Sun, Jul 3
5:00 AM
Sun, Jul 3
6:00 AM
Sun, Jul 3
7:00 AM
Sun, Jul 3
8:00 AM
Sun, Jul 3
9:00 AM
Sun, Jul 3
10:00 AM
Sun, Jul 3
11:00 AM
Condition
Clear

Clear

Clear

Clear

Clear

Clear

Clear

Clear

Clear

Clear

Clear

Clear

Clear

Clear

Clear

Clear

Clear

Clear

Clouds

Clouds

Clouds

Clear

Clear

Clear

Clear

Clear

Clear

Clear

Clear

Clouds

Clouds

Clouds

Clouds

Clouds

Clouds

Clouds

Clouds

Clouds

Clouds

Clouds

Clouds

Clouds

Clouds

Clouds

Clouds

Clouds

Clouds

Clouds
Temperature 80°F79°F81°F83°F85°F85°F84°F80°F72°F60°F55°F52°F51°F50°F50°F50°F50°F49°F49°F52°F59°F65°F71°F76°F80°F82°F82°F81°F79°F76°F70°F67°F62°F55°F51°F49°F49°F49°F50°F50°F51°F51°F49°F51°F57°F63°F69°F75°F
Feels Like 79°F79°F79°F81°F82°F82°F81°F80°F70°F59°F54°F51°F50°F49°F49°F49°F48°F48°F48°F52°F58°F64°F70°F75°F80°F80°F80°F80°F79°F74°F69°F66°F61°F54°F50°F48°F47°F48°F48°F50°F50°F50°F47°F51°F56°F62°F68°F73°F
Cloudiness 1%1%1%1%1%1%1%1%1%1%1%1%2%3%4%5%6%7%11%12%11%8%7%6%1%1%1%1%5%21%100%60%40%31%28%31%37%58%63%64%68%73%50%35%29%24%20%18%
Visibility 6 mi6 mi6 mi6 mi6 mi6 mi6 mi6 mi6 mi6 mi6 mi6 mi6 mi6 mi6 mi6 mi6 mi6 mi6 mi6 mi6 mi6 mi6 mi6 mi6 mi6 mi6 mi6 mi6 mi6 mi6 mi6 mi6 mi6 mi6 mi6 mi6 mi6 mi6 mi6 mi6 mi6 mi6 mi6 mi6 mi6 mi6 mi6 mi
Precipitation 0%0%0%0%0%0%0%0%0%0%0%0%0%0%0%0%0%0%0%0%0%0%0%0%0%0%0%0%0%0%0%0%0%0%0%0%0%0%0%0%0%0%0%0%0%0%0%0%
Humidity 22%21%20%20%20%20%22%27%42%68%86%94%95%95%96%96%96%97%97%90%75%57%44%35%29%27%26%28%30%35%44%50%62%83%96%98%98%97%97%95%94%93%96%90%74%56%42%32%
Dew Point 38°F36°F36°F38°F39°F40°F40°F41°F45°F48°F49°F49°F48°F47°F47°F47°F47°F47°F47°F48°F49°F48°F47°F45°F43°F43°F42°F43°F43°F45°F46°F47°F48°F48°F48°F47°F47°F47°F47°F48°F48°F47°F46°F47°F47°F46°F44°F42°F
Pressure 29.94"29.94"29.94"29.91"29.91"29.88"29.88"29.88"29.88"29.91"29.94"29.94"29.94"29.94"29.94"29.94"29.94"29.94"29.94"29.94"29.94"29.94"29.94"29.91"29.91"29.88"29.88"29.88"29.88"29.88"29.88"29.88"29.91"29.94"29.97"29.97"29.97"29.94"29.94"29.94"29.94"29.94"29.94"29.97"29.94"29.94"29.94"29.91"
Wind Speed 4.4 mph5.3 mph6.8 mph7.9 mph7.9 mph7 mph7.4 mph6.5 mph5.4 mph5.4 mph5.4 mph5.1 mph4.8 mph4.5 mph4.2 mph4.1 mph4 mph3.8 mph3.8 mph3.2 mph3.7 mph4.3 mph4.7 mph5.3 mph7 mph9.1 mph10.7 mph11.7 mph11.6 mph11.1 mph9.9 mph9.4 mph7.7 mph6.4 mph5.3 mph4.6 mph4.2 mph4.6 mph4.4 mph5 mph5.5 mph4.9 mph3.9 mph3.7 mph4.8 mph4.7 mph5 mph5.2 mph
Wind
Direction
211°
SSW
209°
SSW
215°
SW
223°
SW
235°
SW
251°
WSW
276°
W
288°
WNW
296°
WNW
311°
NW
325°
NW
330°
NNW
336°
NNW
336°
NNW
338°
NNW
341°
NNW
341°
NNW
341°
NNW
339°
NNW
333°
NNW
317°
NW
290°
WNW
278°
W
280°
W
279°
W
281°
W
284°
WNW
287°
WNW
291°
WNW
296°
WNW
301°
WNW
303°
WNW
302°
WNW
305°
NW
313°
NW
313°
NW
314°
NW
330°
NNW
334°
NNW
334°
NNW
329°
NNW
330°
NNW
333°
NNW
333°
NNW
323°
NW
306°
NW
289°
WNW
277°
W

Daily Forecast

Date High Low Precip. Humidity
Today
Jul 1

Clear
85 °F
51 °F
0%
21%
Saturday
Jul 2

Clear
82 °F
49 °F
0%
27%
Sunday
Jul 3

Clouds
81 °F
49 °F
0%
24%
Monday
Jul 4

Clear
80 °F
47 °F
0%
28%
Tuesday
Jul 5

Clear
80 °F
50 °F
0%
34%
Wednesday
Jul 6

Clear
82 °F
49 °F
0%
28%
Thursday
Jul 7

Clear
87 °F
49 °F
0%
22%
Friday
Jul 8

Clear
96 °F
54 °F
0%
15%
Saturday
Jul 9

Clear
103 °F
61 °F
0%
12%
Sunday
Jul 10

Clear
103 °F
61 °F
0%
11%
Monday
Jul 11

Clear
90 °F
52 °F
0%
17%
Tuesday
Jul 12

Clear
88 °F
47 °F
0%
21%
Wednesday
Jul 13

Clear
95 °F
54 °F
0%
19%
Thursday
Jul 14

Clear
96 °F
55 °F
0%
18%
Friday
Jul 15

Clear
91 °F
53 °F
0%
20%
Saturday
Jul 16

Clear
90 °F
49 °F
0%
20%

Temperature 8-14 Day Outlook



Precipitation 8-14 Day Outlook




Quick Links
Lake Sonoma News
Lake Sonoma Photos
Lake Sonoma Videos




About Us
Contact Us
Site Map
Search Site
Advertise With Us
   
Sonoma.USLakes.info
THE LAKE SONOMA WEBSITE

Copyright 2022, Lakes Online
Privacy    |    Legal